sat.trackr.live / text

‹ back to catalog

AEROCUBE 6A

NORAD 40045 · 2014-033AM

PAYLOAD ACTIVE UNKNOWN

§ Identity

Operator
Country
US
Launch date
2014-06-19
Launch site
DLS
Launch vehicle
Mass (kg)
RCS (m²)
0.02

Purposes: tech_demo

External: N2YO · Heavens-Above · Gunter

§ Orbital elements

Epoch: 2026-05-24T23:28:27.141024Z

Period
96.14 min
Inclination
97.7213°
Eccentricity
0.0039600
Mean motion
14.97806302 rev/d
Perigee alt
546.1 km
Apogee alt
601.2 km
Semi-major
6,951.8 km
B*
4.1316e-4
RAAN
312.1825°
Arg perigee
93.2361°
Mean anomaly
267.3393°
Rev number
64,314

§ Raw data

AEROCUBE 6A1 40045U 14033AM  26144.97809191  .00004873  00000+0  41316-3 0  99942 40045  97.7213 312.1825 0039600  93.2361 267.3393 14.97806302643149

JSON: /api/v1/satellites/40045 · /tle

For live sub-satellite position, see the globe view (requires WebGL).

§ Visibility from observer

Set your observer location to see the next 7 days of passes ≥ 10°. The values pass through the URL so the page stays shareable.

No JS? Fill the form by hand. The geolocation button needs JavaScript.